www.pontdelpetroli.org - /backoffice2/app_upload/


[To Parent Directory]

Monday, February 23, 2015 8:11 PM 101016 2009-11-15_1100.jpg
Thursday, March 26, 2015 1:38 PM 463841 Boia_EOLOS_Pont_Petroli_Noticia_cat.pdf
Monday, February 23, 2015 8:11 PM 692057 cartel X UCECN 0905133.jpg
Monday, February 23, 2015 8:11 PM 843975 cartell MAR.pdf
Monday, February 23, 2015 8:11 PM 186612 cartell_A4_web.pdf
Monday, February 23, 2015 8:11 PM 1071040 Cartellexpo1911lbadalona.jpg
Monday, February 23, 2015 8:11 PM 98880 concurs de fotografia imatges de Catalunya.pdf
Monday, February 23, 2015 8:11 PM 22307 Copia de 004.jpg
Monday, February 23, 2015 8:11 PM 158973 Copia de P7260432(1).JPG
Monday, February 23, 2015 8:11 PM 158973 Copia de P7260432.JPG
Monday, February 23, 2015 8:11 PM 56413 Costa Brava1915.jpg
Friday, June 30, 2017 3:25 PM 291789 Danys_Pont.jpg
Monday, February 23, 2015 8:11 PM 524465 Diatomees 1.JPG
Monday, February 23, 2015 8:11 PM 9900 Dibujo_jpg.JPG
Monday, February 23, 2015 8:11 PM 71734 eOLOS_1(1).jpg
Monday, February 23, 2015 8:11 PM 71734 eOLOS_1(2).jpg
Monday, February 23, 2015 8:11 PM 18939 eOLOS_1.jpg
Monday, February 23, 2015 8:11 PM 100336 eOLOS_2(1).jpg
Monday, February 23, 2015 8:11 PM 22307 eOLOS_2.jpg
Monday, February 23, 2015 8:11 PM 18 fede.doc
Monday, February 23, 2015 8:11 PM 125842 Flor mataró 1(1).jpg
Monday, February 23, 2015 8:11 PM 125842 Flor mataró 1.jpg
Monday, February 23, 2015 8:11 PM 619109 Flor posidonia 231005.jpg
Monday, February 23, 2015 8:11 PM 125842 FlorMataro(1).jpg
Monday, February 23, 2015 8:11 PM 125842 FlorMataro.jpg
Monday, February 23, 2015 8:11 PM 479389 FulletoIndonesia.jpg
Monday, February 23, 2015 8:11 PM 479389 FulletóIndonesia.jpg
Monday, February 23, 2015 8:11 PM 58752 Hivern2010.jpg
Monday, February 23, 2015 8:11 PM 18939 IMG_1053.jpg
Monday, February 23, 2015 8:11 PM 1975297 InformeAlguer10_senseFotos.doc
Monday, February 23, 2015 8:11 PM 221053 jornada internacional pont del petroli DEFINITIU(1).pdf
Monday, February 23, 2015 8:11 PM 221053 jornada internacional pont del petroli DEFINITIU.pdf
Monday, February 23, 2015 8:11 PM 288442 Larva auriculària.JPG
Monday, February 23, 2015 8:11 PM 496128 LES PICADES DE MEDUSA.doc
Monday, February 23, 2015 8:12 PM 49574 Llum.jpg
Monday, February 23, 2015 8:11 PM 52323 Llum_Febrer.jpg
Monday, February 23, 2015 8:12 PM 6131 Logo_Aj_BDN.gif
Monday, February 23, 2015 8:12 PM 356019 mareesroges.pdf
Monday, February 23, 2015 8:12 PM 15280 meteorologica.jpg
Monday, February 23, 2015 8:12 PM 1326081 nota de premsa alguer 2010 (3).doc
Monday, February 23, 2015 8:12 PM 25089 Nota de premsa xerrada cavallets de mar.doc
Monday, February 23, 2015 8:12 PM 335361 NOTA INFORMATIVA 1911 SOBREVIURE A LA TEMPESTA.doc
Monday, February 23, 2015 8:12 PM 335361 NOTA INFORMATIVA 1911.doc
Monday, February 23, 2015 8:12 PM 178089 Nota_prensa_activitats_40_aniversari_2013.pdf
Monday, February 23, 2015 8:12 PM 22529 NP OLIVES DE MAR A MATARÓ.doc
Monday, February 23, 2015 8:12 PM 119424 Octubre2010.jpg
Monday, February 23, 2015 8:12 PM 25089 Oculina patagonica al Pont del Petroli.doc
Monday, February 23, 2015 8:12 PM 146140 Oculina2.JPG
Monday, February 23, 2015 8:12 PM 164378 Oculina_1.JPG
Monday, February 23, 2015 8:12 PM 265632 OpenSasba_06_09.jpg
Monday, February 23, 2015 8:12 PM 71317 Perfi vertical del salinitat i temperatura.jpg
Monday, February 23, 2015 8:12 PM 64885 Perfil de salinitat i temperatura 18 de març(1).jpg
Monday, February 23, 2015 8:12 PM 64885 Perfil de salinitat i temperatura 18 de març(2).jpg
Monday, February 23, 2015 8:12 PM 64885 Perfil de salinitat i temperatura 18 de març.jpg
Monday, February 23, 2015 8:12 PM 64885 Perfil de salinitat i temperatura 18 març(1).jpg
Monday, February 23, 2015 8:12 PM 64885 Perfil de salinitat i temperatura 18 març.jpg
Monday, February 23, 2015 8:12 PM 64885 Perfil de salinitat i temperatura(1).jpg
Monday, February 23, 2015 8:12 PM 64885 Perfil de salinitat i temperatura.jpg
Monday, February 23, 2015 8:12 PM 64885 Perfil vertical de salinitat i temperatura 18 març(1).jpg
Monday, February 23, 2015 8:12 PM 64885 Perfil vertical de salinitat i temperatura 18 març.jpg
Monday, February 23, 2015 8:12 PM 64885 Perfil vertical de salinitat i temperatura del 18 de març(1).jpg
Monday, February 23, 2015 8:12 PM 64885 Perfil vertical de salinitat i temperatura del 18 de març(2).jpg
Monday, February 23, 2015 8:12 PM 64885 Perfil vertical de salinitat i temperatura del 18 de març(3).jpg
Monday, February 23, 2015 8:12 PM 64885 Perfil vertical de salinitat i temperatura del 18 de març.jpg
Monday, February 23, 2015 8:12 PM 54420 PescadorsIndia.jpg
Monday, February 23, 2015 8:12 PM 164709 PlatjaNevada(1).JPG
Monday, February 23, 2015 8:12 PM 164709 PlatjaNevada(2).JPG
Monday, February 23, 2015 8:12 PM 164708 PlatjaNevada.JPG
Monday, February 23, 2015 8:12 PM 221053 Pont del Petroli.pdf
Monday, February 23, 2015 8:12 PM 163551 PosidoniaMataroII.JPG
Monday, February 23, 2015 8:12 PM 930532 PosterPosidonia.pdf
Monday, February 23, 2015 8:12 PM 207894 Pova800.jpg
Monday, February 23, 2015 8:12 PM 44562 Prova320.jpg
Monday, February 23, 2015 8:12 PM 305997 Prova4.jpg
Monday, February 23, 2015 8:12 PM 145180 Prova640.jpg
Friday, June 30, 2017 3:04 PM 22579 QuèQuiCom_Pont_Petroli(1).jpg
Friday, June 30, 2017 3:02 PM 22579 QuèQuiCom_Pont_Petroli.jpg
Monday, February 23, 2015 8:12 PM 135072 Retallsdemar_Taurons.pdf
Monday, February 23, 2015 8:12 PM 62889 SalinitatTemperatura.jpg
Monday, February 23, 2015 8:12 PM 843698 SUB.090217-096.jpg
Monday, February 23, 2015 8:12 PM 311734 Tarjeto_festa_del_mar_2011.pdf
Monday, February 23, 2015 8:12 PM 24064 Taula resum.xls
Monday, February 23, 2015 8:12 PM 1599716 TauroPelegri.JPG
Monday, February 23, 2015 8:12 PM 69637 TemperaturaSalinitat(1).jpg
Monday, February 23, 2015 8:12 PM 81277 TemperaturaSalinitat(2).jpg
Monday, February 23, 2015 8:12 PM 72684 TemperaturaSalinitat(3).jpg
Monday, February 23, 2015 8:12 PM 64834 TemperaturaSalinitat.jpg
Monday, February 23, 2015 8:12 PM 71179 TemperaturaSalinitat_06_10_10.jpg
Monday, February 23, 2015 8:12 PM 73303 TemperaturaSalinitat_09_06_2010.jpg
Monday, February 23, 2015 8:12 PM 83103 TemperaturaSalinitat_12_26_05_10.jpg
Monday, February 23, 2015 8:12 PM 75540 TemperaturaSalinitat_13_07_2010.jpg
Monday, February 23, 2015 8:12 PM 74907 TemperaturaSalinitat_13_7_10.jpg
Monday, February 23, 2015 8:12 PM 68112 TemperaturaSalinitat_24_02.jpg
Monday, February 23, 2015 8:12 PM 70350 TemperaturaSalinitat_26_11_09.jpg
Monday, February 23, 2015 8:12 PM 77228 TemperaturaSalinitat_28_04.jpg
Monday, February 23, 2015 8:12 PM 105712 TemperaturesOctubre2010.jpg
Monday, February 23, 2015 8:12 PM 74071 TempSal(1).jpg
Monday, February 23, 2015 8:12 PM 70197 TempSal.jpg
Monday, February 23, 2015 8:12 PM 74543 TempSal_07_10.jpg
Monday, February 23, 2015 8:12 PM 65421 TempSal_10_02_10(1).jpg
Monday, February 23, 2015 8:12 PM 64333 TempSal_10_02_10.jpg
Monday, February 23, 2015 8:12 PM 70197 TempSal_16_07_09.jpg
Monday, February 23, 2015 8:12 PM 68582 TempSal_29_10.jpg
Monday, February 23, 2015 8:12 PM 426780 TripticRetalls2010.pdf
Wednesday, May 06, 2015 3:34 PM 380521 Vandalisme.pdf
Monday, February 23, 2015 8:12 PM 684679 XerradaMeduses.pdf